| time (UTC) | temp F | wind direction | speed knots | gust knots | rain 1hr in | rain 24hr in | rain mn in | humidity % | barometer mb |
| 20260902141339 | 85 | 90 | 1.7 | 3.5 | 0.00 | 0.00 | 0.00 | 57 | 1012.3 |
| 20260902140327 | 85 | 98 | 0.9 | 1.7 | 0.00 | 0.00 | 0.00 | 59 | 1012.3 |
| 20260902135334 | 84 | 67 | 0.9 | 1.7 | 0.00 | 0.00 | 0.00 | 59 | 1012.2 |
| 20260902134406 | 84 | 61 | 0.0 | 3.5 | 0.00 | 0.00 | 0.00 | 59 | 1012.1 |
| 20260902133332 | 84 | 59 | 1.7 | 2.6 | 0.00 | 0.00 | 0.00 | 58 | 1012.0 |
| 20260902132337 | 84 | 66 | 0.0 | 0.9 | 0.00 | 0.00 | 0.00 | 58 | 1012.0 |
| 20260902131345 | 84 | 62 | 0.0 | 1.7 | 0.00 | 0.00 | 0.00 | 58 | 1011.8 |
| 20260902130336 | 84 | 65 | 0.9 | 1.7 | 0.00 | 0.00 | 0.00 | 57 | 1011.7 |
| 20260902125402 | 85 | 49 | 0.0 | 0.0 | 0.00 | 0.00 | 0.00 | 55 | 1011.7 |
| 20260902124330 | 85 | 49 | 0.0 | 0.9 | 0.00 | 0.00 | 0.00 | 55 | 1011.5 |
| 20260902123335 | 85 | 77 | 0.9 | 2.6 | 0.00 | 0.00 | 0.00 | 54 | 1011.4 |
| 20260902122341 | 85 | 38 | 0.0 | 2.6 | 0.00 | 0.00 | 0.00 | 54 | 1011.3 |
| 20260902121353 | 85 | 60 | 0.0 | 2.6 | 0.00 | 0.00 | 0.00 | 51 | 1011.2 |
| 20260902120339 | 85 | 53 | 0.0 | 0.9 | 0.00 | 0.00 | 0.00 | 51 | 1011.1 |
| 20260902115345 | 85 | 319 | 0.0 | 0.0 | 0.00 | 0.00 | 0.00 | 49 | 1011.0 |
| 20260902114332 | 86 | 317 | 0.0 | 0.0 | 0.00 | 0.00 | 0.00 | 49 | 1011.0 |
| 20260902113343 | 86 | 297 | 0.0 | 0.0 | 0.00 | 0.00 | 0.00 | 47 | 1011.0 |
| 20260902112330 | 87 | 297 | 0.0 | 0.0 | 0.00 | 0.00 | 0.00 | 46 | 1011.0 |
| 20260902111337 | 87 | 297 | 0.0 | 0.0 | 0.00 | 0.00 | 0.00 | 46 | 1011.0 |
| 20260902110326 | 87 | 297 | 0.0 | 0.0 | 0.00 | 0.00 | 0.00 | 46 | 1010.8 |
| 20260902105353 | 87 | 254 | 0.0 | 1.7 | 0.00 | 0.00 | 0.00 | 46 | 1010.8 |
| 20260902104339 | 87 | 250 | 0.0 | 1.7 | 0.00 | 0.00 | 0.00 | 46 | 1010.9 |
| 20260902103404 | 87 | 262 | 0.0 | 2.6 | 0.00 | 0.00 | 0.00 | 47 | 1011.0 |
| 20260902102350 | 88 | 269 | 0.0 | 0.9 | 0.00 | 0.00 | 0.00 | 48 | 1011.0 |
| 20260902101340 | 88 | 269 | 0.0 | 0.0 | 0.00 | 0.00 | 0.00 | 47 | 1011.0 |
| 20260902100326 | 89 | 269 | 0.0 | 0.0 | 0.00 | 0.00 | 0.00 | 46 | 1011.0 |
| 20260902095333 | 89 | 269 | 0.0 | 0.0 | 0.00 | 0.00 | 0.00 | 46 | 1011.0 |
| 20260902094340 | 89 | 269 | 0.0 | 0.0 | 0.00 | 0.00 | 0.00 | 44 | 1010.9 |
| 20260902093332 | 90 | 269 | 0.0 | 1.7 | 0.00 | 0.00 | 0.00 | 44 | 1010.9 |
| 20260902092337 | 90 | 284 | 0.0 | 0.9 | 0.00 | 0.00 | 0.00 | 43 | 1010.8 |
| 20260902091344 | 90 | 276 | 0.0 | 1.7 | 0.00 | 0.00 | 0.00 | 43 | 1010.8 |
| 20260902090331 | 90 | 257 | 0.9 | 3.5 | 0.00 | 0.00 | 0.00 | 43 | 1010.8 |
| 20260902085357 | 90 | 257 | 0.0 | 3.5 | 0.00 | 0.00 | 0.00 | 43 | 1010.9 |
| 20260902084348 | 90 | 273 | 0.0 | 0.9 | 0.00 | 0.00 | 0.00 | 44 | 1010.9 |
| 20260902083333 | 90 | 269 | 0.9 | 1.7 | 0.00 | 0.00 | 0.00 | 44 | 1010.9 |
| 20260902082341 | 91 | 252 | 0.9 | 4.3 | 0.00 | 0.00 | 0.00 | 43 | 1010.9 |
| 20260902081347 | 91 | 259 | 0.9 | 2.6 | 0.00 | 0.00 | 0.00 | 43 | 1011.0 |
| 20260902080335 | 91 | 269 | 0.0 | 2.6 | 0.00 | 0.00 | 0.00 | 43 | 1011.0 |
| 20260902075341 | 91 | 232 | 0.0 | 1.7 | 0.00 | 0.00 | 0.00 | 42 | 1010.9 |
| 20260902074328 | 91 | 215 | 0.0 | 3.5 | 0.00 | 0.00 | 0.00 | 41 | 1010.9 |
| 20260902073336 | 92 | 205 | 0.0 | 2.6 | 0.00 | 0.00 | 0.00 | 40 | 1010.8 |
| 20260902072327 | 92 | 173 | 0.0 | 1.7 | 0.00 | 0.00 | 0.00 | 39 | 1010.7 |
| 20260902071353 | 92 | 189 | 0.9 | 3.5 | 0.00 | 0.00 | 0.00 | 39 | 1010.7 |
| 20260902070337 | 92 | 229 | 1.7 | 3.5 | 0.00 | 0.00 | 0.00 | 38 | 1010.5 |
| 20260902065403 | 92 | 258 | 0.0 | 2.6 | 0.00 | 0.00 | 0.00 | 39 | 1010.4 |
| 20260902064350 | 92 | 250 | 0.0 | 1.7 | 0.00 | 0.00 | 0.00 | 39 | 1010.4 |
| 20260902063340 | 92 | 242 | 0.0 | 1.7 | 0.00 | 0.00 | 0.00 | 39 | 1010.5 |
| 20260902062326 | 92 | 240 | 1.7 | 4.3 | 0.00 | 0.00 | 0.00 | 40 | 1010.5 |
| 20260902061333 | 93 | 160 | 0.0 | 1.7 | 0.00 | 0.00 | 0.00 | 39 | 1010.3 |
| 20260902060340 | 93 | 190 | 0.0 | 4.3 | 0.00 | 0.00 | 0.00 | 39 | 1010.4 |
| 20260902055352 | 93 | 182 | 1.7 | 2.6 | 0.00 | 0.00 | 0.00 | 39 | 1010.4 |
| 20260902054336 | 93 | 164 | 0.9 | 7.8 | 0.00 | 0.00 | 0.00 | 39 | 1010.3 |
| 20260902053344 | 93 | 155 | 2.6 | 6.1 | 0.00 | 0.00 | 0.00 | 39 | 1010.4 |
| 20260902052352 | 93 | 177 | 3.5 | 7.0 | 0.00 | 0.00 | 0.00 | 39 | 1010.5 |
| 20260902051341 | 93 | 167 | 0.9 | 1.7 | 0.00 | 0.00 | 0.00 | 40 | 1010.5 |
| 20260902050330 | 93 | 161 | 0.9 | 2.6 | 0.00 | 0.00 | 0.00 | 39 | 1010.4 |
| 20260902045337 | 93 | 140 | 1.7 | 2.6 | 0.00 | 0.00 | 0.00 | 39 | 1010.3 |
| 20260902044345 | 93 | 130 | 0.0 | 1.7 | 0.00 | 0.00 | 0.00 | 40 | 1010.2 |
| 20260902043335 | 93 | 135 | 0.9 | 2.6 | 0.00 | 0.00 | 0.00 | 39 | 1010.1 |
| 20260902042341 | 93 | 129 | 0.9 | 1.7 | 0.00 | 0.00 | 0.00 | 39 | 1010.0 |
| 20260902041327 | 93 | 90 | 0.0 | 0.0 | 0.00 | 0.00 | 0.00 | 37 | 1010.0 |
| 20260902040354 | 94 | 65 | 0.0 | 0.0 | 0.00 | 0.00 | 0.00 | 37 | 1009.9 |
| 20260902035401 | 94 | 65 | 0.0 | 0.9 | 0.00 | 0.00 | 0.00 | 36 | 1009.8 |
| 20260902034331 | 94 | 321 | 0.0 | 0.9 | 0.00 | 0.00 | 0.00 | 37 | 1009.8 |
| 20260902033336 | 94 | 285 | 0.0 | 0.9 | 0.00 | 0.00 | 0.00 | 37 | 1009.6 |
| 20260902032342 | 95 | 285 | 0.0 | 0.9 | 0.00 | 0.00 | 0.00 | 37 | 1009.4 |
| 20260902031349 | 95 | 285 | 0.0 | 0.0 | 0.00 | 0.00 | 0.00 | 36 | 1009.0 |
| 20260902030337 | 95 | 285 | 0.0 | 0.0 | 0.00 | 0.00 | 0.00 | 37 | 1009.0 |
| 20260902025343 | 96 | 285 | 0.0 | 0.9 | 0.00 | 0.00 | 0.00 | 36 | 1008.8 |
| 20260902024331 | 96 | 285 | 0.0 | 0.0 | 0.00 | 0.00 | 0.00 | 36 | 1008.6 |
| 20260902023338 | 96 | 285 | 0.0 | 0.0 | 0.00 | 0.00 | 0.00 | 35 | 1008.6 |
| 20260902022349 | 97 | 285 | 0.0 | 0.0 | 0.00 | 0.00 | 0.00 | 36 | 1008.6 |
| 20260902021334 | 97 | 285 | 0.0 | 0.9 | 0.00 | 0.00 | 0.00 | 35 | 1008.6 |
| 20260902020341 | 98 | 285 | 0.0 | 1.7 | 0.00 | 0.00 | 0.00 | 34 | 1008.6 |
| 20260902015329 | 98 | 323 | 0.0 | 2.6 | 0.00 | 0.00 | 0.00 | 33 | 1008.3 |
| 20260902014338 | 99 | 300 | 0.9 | 2.6 | 0.00 | 0.00 | 0.00 | 33 | 1008.3 |
| 20260902013341 | 100 | 153 | 1.7 | 4.3 | 0.00 | 0.00 | 0.00 | 31 | 1008.3 |
| 20260902012329 | 100 | 186 | 0.9 | 2.6 | 0.00 | 0.00 | 0.00 | 31 | 1008.3 |
| 20260902011357 | 101 | 283 | 0.9 | 2.6 | 0.00 | 0.00 | 0.00 | 31 | 1008.3 |
| 20260902010327 | 101 | 360 | 0.0 | 3.5 | 0.00 | 0.00 | 0.00 | 30 | 1008.4 |
| 20260902005336 | 101 | 207 | 1.7 | 4.3 | 0.00 | 0.00 | 0.00 | 30 | 1008.6 |
| 20260902004343 | 101 | 156 | 2.6 | 4.3 | 0.00 | 0.00 | 0.00 | 30 | 1008.7 |
| 20260902003330 | 101 | 51 | 1.7 | 4.3 | 0.00 | 0.00 | 0.00 | 29 | 1008.7 |
| 20260902002342 | 102 | 293 | 1.7 | 6.1 | 0.00 | 0.00 | 0.00 | 30 | 1008.9 |
| 20260902001349 | 102 | 263 | 0.9 | 3.5 | 0.00 | 0.00 | 0.00 | 28 | 1008.9 |
| 20260902000334 | 102 | 284 | 2.6 | 5.2 | 0.00 | 0.00 | 0.00 | 29 | 1008.9 |
| 20260901235341 | 102 | 267 | 1.7 | 3.5 | 0.00 | 0.00 | 0.00 | 31 | 1008.9 |
| 20260901234348 | 101 | 88 | 0.0 | 3.5 | 0.00 | 0.00 | 0.00 | 32 | 1009.0 |
| 20260901233338 | 101 | 266 | 1.7 | 3.5 | 0.00 | 0.00 | 0.00 | 31 | 1009.2 |
| 20260901232344 | 101 | 240 | 2.6 | 6.1 | 0.00 | 0.00 | 0.00 | 32 | 1009.3 |
| 20260901231331 | 101 | 213 | 3.5 | 7.0 | 0.00 | 0.00 | 0.00 | 31 | 1009.4 |
| 20260901230338 | 101 | 259 | 0.9 | 6.1 | 0.00 | 0.00 | 0.00 | 32 | 1009.5 |
| 20260901225330 | 101 | 192 | 2.6 | 10.4 | 0.00 | 0.00 | 0.00 | 32 | 1009.6 |
| 20260901224337 | 101 | 195 | 1.7 | 5.2 | 0.00 | 0.00 | 0.00 | 33 | 1009.6 |
| 20260901223343 | 101 | 144 | 3.5 | 5.2 | 0.00 | 0.00 | 0.00 | 33 | 1009.7 |
| 20260901222329 | 100 | 175 | 2.6 | 7.0 | 0.00 | 0.00 | 0.00 | 32 | 1009.8 |
| 20260901221400 | 101 | 157 | 4.3 | 7.8 | 0.00 | 0.00 | 0.00 | 33 | 1009.9 |
| 20260901220346 | 101 | 244 | 2.6 | 6.1 | 0.00 | 0.00 | 0.00 | 33 | 1010.0 |
| 20260901215330 | 100 | 229 | 5.2 | 7.0 | 0.00 | 0.00 | 0.00 | 34 | 1010.2 |
| 20260901214337 | 100 | 163 | 3.5 | 8.7 | 0.00 | 0.00 | 0.00 | 35 | 1010.3 |
| 20260901213343 | 100 | 243 | 2.6 | 7.8 | 0.00 | 0.00 | 0.00 | 34 | 1010.4 |
| 20260901212333 | 99 | 192 | 4.3 | 8.7 | 0.00 | 0.00 | 0.00 | 36 | 1010.7 |
| 20260901211340 | 98 | 197 | 3.5 | 7.8 | 0.00 | 0.00 | 0.00 | 37 | 1010.8 |
| 20260901210327 | 98 | 78 | 1.7 | 4.3 | 0.00 | 0.00 | 0.00 | 38 | 1011.1 |
| 20260901205334 | 98 | 226 | 3.5 | 8.7 | 0.00 | 0.00 | 0.00 | 37 | 1011.2 |
| 20260901204345 | 98 | 245 | 2.6 | 7.0 | 0.00 | 0.00 | 0.00 | 38 | 1011.4 |
| 20260901203331 | 97 | 269 | 3.5 | 6.1 | 0.00 | 0.00 | 0.00 | 38 | 1011.5 |
| 20260901202339 | 97 | 147 | 1.7 | 7.0 | 0.00 | 0.00 | 0.00 | 39 | 1011.6 |
| 20260901201403 | 97 | 95 | 3.5 | 7.8 | 0.00 | 0.00 | 0.00 | 39 | 1011.8 |
| 20260901200333 | 97 | 97 | 1.7 | 5.2 | 0.00 | 0.00 | 0.00 | 39 | 1011.9 |
| 20260901195400 | 97 | 320 | 2.6 | 5.2 | 0.00 | 0.00 | 0.00 | 39 | 1012.0 |
| 20260901194347 | 97 | 229 | 4.3 | 9.6 | 0.00 | 0.00 | 0.00 | 40 | 1012.2 |
| 20260901193331 | 97 | 121 | 2.6 | 7.0 | 0.00 | 0.00 | 0.00 | 40 | 1012.3 |
| 20260901192340 | 96 | 284 | 0.9 | 4.3 | 0.00 | 0.00 | 0.00 | 39 | 1012.4 |
| 20260901191346 | 96 | 225 | 1.7 | 3.5 | 0.00 | 0.00 | 0.00 | 40 | 1012.6 |
| 20260901190333 | 95 | 182 | 3.5 | 5.2 | 0.00 | 0.00 | 0.00 | 41 | 1012.8 |
| 20260901185339 | 95 | 77 | 3.5 | 6.1 | 0.00 | 0.00 | 0.00 | 42 | 1013.0 |
| 20260901184329 | 94 | 172 | 2.6 | 4.3 | 0.00 | 0.00 | 0.00 | 42 | 1013.0 |
| 20260901183334 | 94 | 120 | 3.5 | 7.0 | 0.00 | 0.00 | 0.00 | 43 | 1013.1 |
| 20260901182342 | 94 | 85 | 1.7 | 5.2 | 0.00 | 0.00 | 0.00 | 43 | 1013.3 |
| 20260901181329 | 93 | 108 | 3.5 | 6.1 | 0.00 | 0.00 | 0.00 | 45 | 1013.3 |
| 20260901180341 | 92 | 219 | 3.5 | 6.1 | 0.00 | 0.00 | 0.00 | 45 | 1013.4 |
| 20260901175327 | 92 | 19 | 0.9 | 7.0 | 0.00 | 0.00 | 0.00 | 46 | 1013.5 |
| 20260901174333 | 92 | 167 | 0.9 | 4.3 | 0.00 | 0.00 | 0.00 | 46 | 1013.6 |
| 20260901173359 | 91 | 140 | 2.6 | 7.0 | 0.00 | 0.00 | 0.00 | 47 | 1013.7 |
| 20260901172344 | 91 | 204 | 2.6 | 6.1 | 0.00 | 0.00 | 0.00 | 47 | 1013.8 |
| 20260901171355 | 91 | 53 | 1.7 | 5.2 | 0.00 | 0.00 | 0.00 | 47 | 1013.9 |
| 20260901170340 | 90 | 169 | 2.6 | 6.1 | 0.00 | 0.00 | 0.00 | 49 | 1013.8 |
| 20260901165328 | 89 | 160 | 2.6 | 7.8 | 0.00 | 0.00 | 0.00 | 50 | 1013.7 |
| 20260901164356 | 89 | 175 | 2.6 | 7.0 | 0.00 | 0.00 | 0.00 | 50 | 1013.7 |
| 20260901163341 | 89 | 151 | 2.6 | 6.1 | 0.00 | 0.00 | 0.00 | 50 | 1013.7 |
| 20260901162333 | 88 | 148 | 1.7 | 7.0 | 0.00 | 0.00 | 0.00 | 52 | 1013.5 |
| 20260901161339 | 88 | 101 | 3.5 | 8.7 | 0.00 | 0.00 | 0.00 | 51 | 1013.5 |
| 20260901160345 | 87 | 109 | 1.7 | 7.0 | 0.00 | 0.00 | 0.00 | 51 | 1013.4 |
| 20260901155330 | 87 | 128 | 2.6 | 6.1 | 0.00 | 0.08 | 0.00 | 52 | 1013.4 |
| 20260901154341 | 86 | 78 | 1.7 | 7.0 | 0.00 | 0.08 | 0.00 | 53 | 1013.3 |
| 20260901153328 | 86 | 119 | 1.7 | 7.0 | 0.00 | 0.08 | 0.00 | 53 | 1013.3 |
| 20260901152336 | 85 | 88 | 2.6 | 6.1 | 0.00 | 0.08 | 0.00 | 55 | 1013.3 |
| 20260901151327 | 84 | 58 | 1.7 | 7.0 | 0.00 | 0.08 | 0.00 | 56 | 1013.1 |
| 20260901150333 | 84 | 58 | 3.5 | 7.8 | 0.00 | 0.08 | 0.00 | 56 | 1013.1 |
| 20260901145359 | 83 | 113 | 1.7 | 7.0 | 0.00 | 0.21 | 0.00 | 57 | 1013.1 |
| 20260901144344 | 83 | 67 | 1.7 | 4.3 | 0.00 | 0.21 | 0.00 | 58 | 1013.1 |
| 20260901143331 | 82 | 104 | 0.9 | 3.5 | 0.00 | 0.21 | 0.00 | 61 | 1013.0 |
| 20260901142343 | 81 | 53 | 0.0 | 2.6 | 0.00 | 0.21 | 0.00 | 64 | 1013.1 |